Starlink 30196

operational
NORAD ID: 57448 Int'l Des: 2023-105 Owner: SPXS Country: US Constellation: starlink
LEOCIRCULAR

About Starlink 30196

Description loading...

Live Position

Loading 3D Globe...

Upcoming Passes

Altitude History

Altitude vs Time

uPlot chart will show altitude changes over time

Two-Line Element Set

1 57448U 23105U 26035.18525988 -.00000200 00000-0 26965-6 0 9998
2 57448 43.0042 83.4385 0001361 271.6350 88.4336 15.02535662140360
Epoch: Feb 4, 2026 • Age: 6 hours

Current Status

Altitude 566.0 km
Velocity 7.58 km/s
Sub-Earth Point -28.68°S, 9.82°E
Launch Date Jul 24, 2023
Age 2.5 years
Type internet

Technical Details

Classification Payload
Mass 730.00 kg
Dry Mass 700.00 kg
Total Mass 730.00 kg
Length 0.30 m
Diameter 4.10 m
Span 29.00 m
Shape Box + pan
Manufacturer SPXS
Bus Type Starlink V2M
Phase Status In Orbit
Owner/State SPXS/US

Large Constellations

Loading constellations...